RH
34 34 34 35 35 35 35 36 36 37 38 38 40 40 39 38 37 36 35 35 35 36 37 40 41 41 42 42 42 41 40 41 41 42 44 44 45 47 49 50 52 54 54 53 52 51 50 50 48 47 46 45 43 40 39 40 40 41 42 42 42 41 40 39 39 37 35 35 34 35 36 36 35 34 35 35 35 35 33 31 29 27 26 27 28
35 35 36 36 36 36 37 37 38 38 38 39 40 40 39 39 39 37 36 35 34 34 35 37 39 39 39 40 40 39 40 40 41 42 43 44 45 46 47 48 50 52 54 55 55 54 54 54 53 50 48 47 47 46 44 43 43 42 42 42 42 42 41 40 38 37 35 35 35 34 34 34 33 33 34 35 35 34 32 29 27 24 23 25 28
35 36 37 36 38 38 38 38 39 39 40 40 40 40 41 42 42 41 39 38 37 36 36 38 40 40 40 41 41 42 42 42 44 45 46 47 48 49 50 50 50 52 54 57 60 59 58 58 57 56 53 49 48 48 47 46 46 45 44 44 43 42 41 40 39 37 36 35 35 35 34 34 33 33 33 34 34 33 31 30 29 26 23 22 26
35 36 38 39 40 39 39 40 40 40 40 40 41 42 42 44 44 44 44 43 42 40 39 39 41 43 44 44 46 47 48 50 52 52 52 52 52 53 54 53 53 54 58 62 67 69 69 67 65 65 63 59 54 50 49 49 48 48 46 46 45 44 43 41 40 39 39 37 37 36 35 34 34 34 34 34 33 32 32 33 32 29 25 22 23
34 36 38 40 41 40 40 40 40 39 40 41 42 43 44 45 46 48 48 47 47 46 43 42 43 46 48 49 49 51 53 55 56 56 55 55 55 55 55 55 56 58 60 63 67 70 74 76 75 74 73 72 68 59 54 53 53 52 50 48 46 46 46 45 44 41 40 39 39 39 38 37 36 36 36 36 35 33 32 33 33 32 29 25 22
32 33 35 38 40 40 40 39 38 38 39 41 43 45 47 49 50 51 52 51 51 50 48 48 47 48 50 51 52 53 53 53 52 53 54 54 54 55 55 56 58 58 61 67 71 71 73 76 77 78 76 76 76 71 63 59 59 58 56 55 53 50 49 50 49 48 45 42 40 40 40 40 40 39 37 36 37 37 36 35 33 32 29 27 25
34 34 34 36 39 39 39 38 37 39 41 42 43 44 47 49 51 53 54 55 56 55 53 53 53 51 49 50 52 53 53 51 49 49 49 49 49 51 52 54 57 57 61 70 75 74 73 73 75 78 80 80 80 80 77 71 68 66 63 62 62 60 58 55 54 53 52 49 46 43 41 40 41 41 39 36 35 36 37 35 33 31 29 28 26
38 37 36 38 39 39 38 38 40 42 43 43 42 43 45 47 50 53 54 56 57 57 55 56 57 54 50 49 52 52 52 51 50 48 47 47 47 47 48 50 53 57 62 68 72 73 73 73 73 77 83 87 84 83 84 83 80 77 76 72 70 67 65 63 60 58 56 55 54 52 49 44 40 40 40 38 36 36 36 35 33 31 29 27 26
39 39 39 40 40 39 39 41 42 44 44 43 43 44 44 45 48 52 53 54 55 55 54 53 54 51 48 47 49 50 50 50 50 49 49 48 47 47 46 47 49 53 57 60 64 67 69 71 73 76 81 86 85 83 83 86 86 85 85 85 83 79 75 73 69 65 61 59 59 59 58 55 48 43 40 39 39 37 37 36 35 34 31 28 27
40 40 39 40 40 40 42 44 46 46 46 46 46 44 42 42 43 47 51 52 53 53 53 53 52 52 52 51 49 49 50 51 51 51 50 48 47 46 45 46 49 52 54 55 58 63 66 67 71 76 79 82 83 83 82 84 86 86 88 90 91 90 89 86 83 80 74 68 65 63 62 62 59 52 45 41 41 41 40 39 38 36 34 33 32
42 41 40 41 42 43 45 47 49 49 48 49 48 44 41 39 40 43 47 50 53 55 56 56 56 57 58 57 54 52 52 52 52 50 48 47 45 45 45 46 50 54 57 58 60 63 65 66 68 73 78 80 80 81 81 82 85 86 89 93 93 93 95 94 91 91 88 82 77 72 68 67 66 63 55 48 45 43 43 43 42 40 37 37 37
43 43 43 45 46 46 49 51 53 53 52 54 52 44 39 38 39 42 46 51 55 57 58 59 58 58 60 59 57 55 52 50 50 49 47 45 44 44 44 45 49 52 54 57 58 60 61 61 62 67 73 74 73 72 73 76 81 84 86 92 95 94 94 93 92 94 94 92 89 85 80 76 73 71 66 59 53 50 48 46 46 46 43 41 40
46 46 47 48 50 51 53 54 55 56 57 58 55 47 41 39 40 43 48 53 57 59 59 59 59 57 58 59 57 54 51 49 49 48 47 45 44 44 44 46 48 51 53 54 55 56 56 56 57 61 65 67 66 65 65 68 73 77 80 83 85 85 85 85 87 92 95 96 95 92 90 88 84 79 77 72 66 62 59 55 51 49 47 46 44
49 49 50 51 54 58 59 58 59 60 61 61 56 48 43 40 41 46 51 55 59 60 58 59 59 57 56 57 56 52 50 50 49 48 47 46 45 44 45 46 48 51 52 52 52 52 52 52 53 55 59 61 61 62 63 63 66 69 72 73 73 74 75 74 76 85 93 97 97 94 91 91 89 86 86 84 78 73 69 66 62 57 52 49 47
52 53 54 56 59 62 64 63 63 63 63 61 56 50 45 42 42 49 54 56 59 59 57 57 57 55 55 55 53 51 50 49 47 46 45 44 43 44 44 45 46 48 50 51 52 53 53 53 54 56 57 58 58 58 58 59 60 61 62 64 64 65 66 67 69 77 86 90 94 95 92 92 92 91 90 90 88 83 78 75 72 69 62 56 53
54 55 57 59 61 62 64 66 66 66 65 62 56 50 45 41 43 49 53 54 55 55 55 55 54 52 51 51 49 47 45 44 43 43 42 41 41 41 40 40 40 42 43 45 47 49 51 52 52 53 54 54 54 54 57 59 60 60 59 59 60 59 62 63 64 68 74 78 86 94 96 94 93 92 91 93 94 91 88 83 79 77 72 66 62
55 56 57 59 61 62 64 67 68 69 66 61 54 46 42 41 45 49 52 52 52 52 52 52 51 49 48 47 46 45 43 43 43 42 41 40 39 37 35 32 32 33 34 35 36 38 40 41 42 43 44 45 46 48 51 53 54 55 55 56 57 58 60 62 62 62 64 66 74 87 93 91 91 90 89 91 95 97 95 89 83 82 79 74 72
56 55 56 60 64 65 67 69 70 69 66 58 50 45 44 46 49 51 52 51 49 49 50 50 47 45 44 45 46 46 45 44 43 41 40 39 36 33 31 28 28 29 29 31 32 33 34 34 34 35 35 36 38 40 42 42 43 44 44 45 47 49 51 55 58 61 63 62 64 72 79 83 88 92 91 91 93 97 98 93 90 91 88 82 80
54 54 56 63 69 70 70 71 71 68 63 56 51 48 49 51 53 54 55 53 49 47 47 46 44 42 41 42 46 46 44 42 39 37 36 35 33 32 31 29 28 29 28 29 29 30 30 31 32 33 33 34 36 36 38 39 39 40 41 43 45 45 46 46 48 52 58 61 62 64 65 70 78 85 90 95 96 97 97 94 95 98 95 90 88
54 54 59 66 71 73 73 72 69 65 62 58 54 52 51 53 57 58 58 56 52 49 47 44 41 38 38 40 44 43 40 38 37 36 35 35 35 35 34 32 30 30 29 29 28 28 28 28 29 31 34 36 37 38 39 42 44 44 46 48 49 49 48 46 45 46 49 55 60 63 62 64 68 71 77 85 91 96 98 97 96 98 98 95 94
54 56 60 67 71 73 74 71 67 64 63 60 57 53 51 54 58 59 58 57 54 50 48 44 40 37 37 38 40 40 38 37 38 37 36 35 36 36 35 34 31 29 29 29 29 30 29 30 30 33 36 37 39 40 42 43 44 44 46 46 47 48 49 49 48 49 49 53 59 65 66 67 68 70 72 75 80 88 94 96 97 99 99 98 97
56 58 64 69 72 74 74 70 66 65 64 61 57 53 51 55 57 57 57 56 53 50 47 43 40 38 38 38 38 39 39 39 39 38 36 34 34 34 34 33 31 29 29 30 31 32 34 35 36 37 38 38 39 41 41 40 40 40 41 42 43 44 46 47 48 50 51 53 57 65 72 75 76 76 76 76 77 81 87 90 93 96 99 99 99
59 64 68 71 73 75 73 68 66 65 64 61 55 51 52 56 57 55 54 54 52 50 45 41 40 39 39 38 39 40 40 39 38 35 32 32 32 31 31 31 28 27 28 30 32 33 36 38 38 39 39 39 40 40 39 39 38 38 39 40 40 41 43 44 46 47 49 50 52 57 65 74 78 78 78 78 77 80 88 92 90 92 96 98 99
65 69 71 72 73 71 69 67 67 65 62 57 52 52 56 57 56 54 53 53 51 48 43 41 40 40 39 39 38 38 37 35 33 31 29 29 29 29 29 28 27 26 29 31 33 34 35 36 36 37 37 37 37 36 36 36 36 36 37 38 38 39 41 42 44 46 47 49 51 53 57 64 72 77 79 81 79 79 83 88 90 93 96 96 96
71 74 74 73 71 69 69 69 65 60 55 52 52 56 59 58 55 53 53 52 50 46 43 42 42 41 41 39 37 36 34 31 30 29 28 28 28 28 29 29 27 27 30 33 34 34 33 32 31 31 31 32 32 32 32 32 33 34 36 36 36 37 39 40 41 44 46 47 49 52 54 58 64 71 76 80 83 82 81 80 83 89 95 98 96
75 75 72 71 71 72 70 65 58 52 50 52 56 60 61 58 54 52 53 52 49 45 42 42 42 41 41 38 35 33 31 29 28 28 27 27 28 28 30 30 28 29 31 33 33 32 29 28 28 29 29 29 29 30 30 30 32 34 36 37 37 37 38 38 38 39 41 43 47 51 54 55 59 66 71 75 79 83 84 82 80 82 87 93 97
75 73 72 72 71 69 64 56 51 51 53 58 62 63 61 57 54 53 53 50 47 44 42 41 40 39 38 35 33 31 29 27 26 26 26 27 29 30 31 30 28 29 30 30 29 27 25 25 25 27 28 29 29 30 30 30 30 31 31 33 35 37 38 38 37 36 36 38 42 49 54 55 56 59 64 69 74 78 81 84 86 85 84 84 86
73 71 70 68 63 58 53 51 54 57 61 64 66 63 59 57 55 53 51 47 44 42 42 40 38 36 35 33 31 29 28 27 26 26 27 28 28 29 29 28 27 27 27 24 22 22 22 22 23 24 25 27 28 28 28 27 27 26 26 26 29 32 35 38 40 42 42 41 42 46 49 52 53 55 59 64 69 73 76 80 84 86 86 83 80
67 64 62 59 54 52 53 56 62 66 68 67 65 60 57 56 55 52 48 44 42 42 41 39 37 36 34 32 31 29 28 28 27 27 27 27 27 26 26 26 27 27 25 23 21 21 22 22 23 24 26 27 28 26 23 22 23 24 25 26 27 29 33 38 44 48 49 49 49 49 50 51 53 55 57 60 63 66 69 74 79 82 84 84 81
60 58 56 54 52 55 59 64 69 71 70 67 63 59 56 55 53 50 46 44 44 43 41 39 37 35 33 31 30 28 27 26 26 25 25 26 25 24 25 26 27 25 24 23 22 22 24 27 28 30 31 31 30 27 25 23 24 25 26 27 30 32 34 38 44 48 51 50 50 50 52 52 53 53 54 56 59 61 62 67 72 78 82 85 85
58 56 55 55 57 62 68 70 72 72 70 65 60 56 55 55 52 48 46 45 44 43 40 37 35 33 31 30 29 27 26 25 25 24 25 26 26 25 25 26 25 24 24 24 25 26 29 32 34 35 34 33 32 32 32 30 30 29 28 27 28 31 33 35 38 42 45 45 46 48 50 50 50 50 50 51 53 57 59 62 66 73 80 85 87
58 58 59 62 65 70 73 73 73 72 67 60 55 54 54 53 50 48 46 45 44 41 37 34 32 31 29 28 27 26 25 25 25 26 27 28 27 26 25 25 25 26 26 27 29 31 32 34 37 37 35 34 35 37 37 36 33 32 30 28 27 28 30 32 34 35 36 36 38 41 44 46 47 48 48 49 51 53 57 59 61 64 72 80 85
62 65 67 69 72 75 76 75 73 68 61 56 54 54 52 48 46 46 45 44 41 38 35 32 31 29 28 27 26 25 25 25 26 28 29 29 26 24 24 26 28 29 31 33 34 33 33 34 37 39 37 37 37 38 37 36 34 32 31 30 29 28 30 32 32 32 32 31 31 32 35 37 40 42 43 45 48 50 53 57 58 59 62 70 78
72 73 74 75 77 79 78 74 67 60 55 53 53 52 48 45 44 45 44 42 38 35 33 32 30 28 27 26 26 26 26 26 27 28 28 27 25 24 24 25 27 30 32 33 33 32 31 32 35 39 42 44 44 42 38 34 31 29 28 28 28 29 29 30 30 30 30 31 30 30 31 32 33 35 37 38 40 42 45 49 53 55 56 60 68
78 78 79 81 82 80 74 66 58 52 51 51 51 47 44 43 44 44 42 39 36 34 32 31 28 27 26 26 26 26 26 27 27 26 25 25 23 22 21 23 25 28 30 30 30 30 30 31 32 35 38 41 43 43 41 37 33 31 27 26 26 26 26 28 28 28 29 30 30 30 31 31 31 31 32 33 34 35 37 39 44 49 52 55 60
80 82 84 83 79 71 64 56 51 49 49 49 45 42 42 43 43 42 39 36 34 33 31 29 26 26 26 26 26 26 25 24 23 22 21 20 18 18 20 25 28 30 30 30 31 32 32 33 33 34 34 34 36 38 40 39 37 34 31 29 28 27 26 27 28 30 32 33 33 32 32 32 32 32 31 31 32 32 32 35 39 44 49 52 55
82 84 83 77 69 61 55 51 49 49 48 45 42 42 44 44 41 38 36 35 34 31 29 27 26 27 27 27 26 24 21 17 15 15 15 15 14 15 22 28 31 32 33 33 33 33 34 35 36 36 36 36 36 36 37 38 37 35 34 34 34 33 32 30 30 32 35 35 35 35 35 35 34 34 33 33 33 32 31 31 34 39 45 50 53
82 79 74 66 59 54 51 50 49 48 45 43 43 45 45 41 38 35 34 33 32 29 28 27 27 27 27 28 27 24 19 15 14 14 14 14 14 17 23 28 31 32 34 34 34 35 36 37 37 38 38 39 39 39 38 38 38 38 37 38 39 40 39 37 35 35 36 36 36 36 37 38 38 37 37 36 35 34 34 33 32 35 39 46 51
76 70 63 57 54 52 51 50 48 46 45 46 47 45 41 37 35 35 34 32 29 28 28 28 28 28 28 28 27 23 19 16 15 15 16 16 17 21 26 29 31 33 35 35 36 37 37 38 39 40 41 41 41 41 40 40 39 39 39 40 40 42 44 44 42 39 38 37 37 37 38 39 40 40 39 38 36 35 34 34 34 34 35 40 47
72 66 59 57 55 54 52 50 48 47 47 47 45 40 38 36 35 34 32 30 29 29 29 30 30 29 27 26 23 19 18 19 20 20 20 21 20 21 24 27 30 33 35 37 39 40 41 42 43 43 43 43 43 43 42 42 41 40 41 42 43 45 48 49 47 44 42 40 39 39 39 40 40 40 40 39 39 37 35 35 36 37 37 37 42
70 64 60 58 56 53 51 50 49 49 47 44 40 37 37 35 34 32 30 29 29 30 31 31 31 29 26 24 20 18 20 25 28 27 27 26 24 22 22 22 23 25 27 30 33 36 40 43 45 45 46 46 46 45 44 43 41 40 40 42 45 48 51 52 52 50 46 43 42 41 40 39 40 40 40 40 39 38 37 37 37 39 39 39 40
65 61 60 59 56 53 52 50 49 46 42 40 38 37 36 34 32 31 30 30 31 32 32 31 30 28 25 23 21 20 23 29 31 31 30 29 27 26 25 24 23 22 21 22 26 32 38 42 44 46 47 47 47 46 44 43 41 40 39 40 45 50 53 55 55 54 50 47 45 43 41 42 42 42 41 40 40 38 37 38 39 40 41 41 40
59 60 62 61 58 54 51 48 45 42 40 39 38 36 34 33 32 31 31 32 32 33 32 31 29 26 25 23 23 24 27 31 33 33 31 28 27 27 27 27 27 26 23 22 26 34 40 43 44 46 48 49 48 46 44 43 43 40 39 41 47 53 56 57 57 56 53 50 49 48 47 47 45 42 40 41 41 39 37 38 41 43 44 45 44
59 63 63 59 55 52 48 45 43 40 39 37 36 34 33 33 33 33 32 33 33 33 32 29 28 26 25 24 24 27 30 33 33 31 29 28 28 28 30 31 32 30 29 29 33 39 44 46 47 49 50 49 48 46 45 45 45 43 42 44 49 55 58 59 59 58 56 53 52 53 51 48 44 42 42 43 43 41 38 38 41 45 48 49 49
61 62 59 55 52 49 46 44 41 39 38 36 35 35 34 34 34 34 34 33 33 32 30 28 28 28 26 25 26 29 33 33 32 31 31 31 32 33 36 37 36 34 33 34 38 42 45 48 50 51 50 48 46 45 46 47 46 45 44 46 51 57 60 60 60 60 58 55 52 51 50 47 45 45 46 46 44 42 39 39 41 44 49 52 52
60 59 56 54 52 48 45 42 39 38 38 37 35 35 36 36 35 35 34 33 32 31 29 29 29 28 27 27 29 32 33 32 32 33 33 34 35 36 37 36 35 33 33 34 37 42 46 49 51 50 49 47 46 46 46 46 46 45 45 49 56 61 61 60 60 58 53 48 47 47 49 49 51 51 50 47 45 43 41 41 44 47 49 51 52
58 57 56 54 50 46 43 41 39 39 39 37 36 36 37 37 37 36 35 32 31 30 30 29 29 30 30 30 32 33 32 33 34 34 34 34 34 35 34 32 31 31 33 36 40 44 47 49 49 48 48 46 46 45 45 46 46 45 46 52 58 61 59 57 54 50 44 43 45 50 54 55 56 56 54 51 50 48 46 47 53 56 55 53 53
57 57 54 51 47 44 42 41 41 41 39 37 37 37 38 39 38 37 34 31 30 30 30 31 31 33 34 34 34 34 34 34 34 34 33 34 34 32 30 30 30 31 34 38 43 47 49 50 48 47 46 46 46 47 50 52 51 50 51 54 57 58 56 54 50 45 43 45 50 56 59 59 60 60 59 56 54 52 49 51 57 63 63 60 57
57 55 51 48 46 44 43 42 42 42 40 38 38 39 39 39 38 35 32 31 31 31 32 33 35 37 37 36 35 34 33 33 33 33 34 33 32 29 29 29 30 33 37 43 48 50 50 49 48 47 45 46 50 54 59 60 58 55 55 56 57 58 58 55 50 46 46 50 56 61 64 64 63 62 59 56 56 55 52 54 62 67 67 65 63
56 52 49 48 47 45 43 42 42 41 40 40 39 40 39 39 36 32 30 31 32 34 36 37 38 38 38 37 36 34 33 34 34 34 33 31 29 28 29 29 31 37 43 47 50 51 49 47 47 46 46 49 56 64 68 68 64 61 60 61 63 64 62 57 52 51 54 58 63 67 68 66 62 59 56 53 52 52 53 56 64 68 68 66 64
54 51 50 50 48 45 43 42 41 41 40 40 40 40 40 37 33 29 29 32 35 37 37 37 38 38 38 38 36 35 35 35 33 31 29 27 27 28 29 29 34 41 46 47 47 47 46 45 45 46 49 56 65 72 75 74 72 70 69 69 69 66 61 56 56 59 61 62 65 67 65 61 57 55 52 50 49 53 57 62 67 69 67 65 65